[[{"header":{"parameterUnit":"m.s-1","parameterCategory":1,"la1":30.2991,"la2":30.254,"lo1":-89.0895,"lo2":-89.0444,"dy":0.0017,"dx":0.0017,"nx":28,"ny":28,"refTime":"2024-08-24T09:00:00:Z","depth":0,"parameterNumber":2,"parameterNumberName":"U-component_of_WINDS"},"data":[0,0,0,0,0,0,0,0,0,0,0,0,0,0,0,0,0,0,0,0,0,0,0,0,0,0,0,0,0,0,0,0,0,0,0,0,0,0,0,0,0,0,0,0,0,0,0,0,0,0,0,0,0,0,0,0,0,0,-1.1833,-1.1833,0,-1.1807,-1.1807,-1.1806,-1.1747,-1.1746,-1.1745,-1.1744,-1.1718,-1.1718,-1.1719,0,0,0,0,0,0,0,0,0,0,0,0,0,-1.1834,-1.1834,-1.1833,-1.1833,-1.1832,-1.1807,-1.1806,-1.1806,-1.1748,-1.1746,-1.1745,-1.1743,-1.1718,-1.1718,-1.1719,0,0,0,0,0,0,0,0,0,0,0,0,0,-1.1823,-1.1834,-1.1833,-1.18,-1.1797,-1.1807,-1.1806,-1.1806,-1.1748,-1.1746,-1.1744,-1.1743,-1.1718,-1.1718,-1.1719,-1.1759,0,0,-1.1721,-1.1721,0,0,0,0,0,0,0,0,-1.1824,-1.1823,-1.1805,-1.1802,-1.1799,-1.1778,-1.1797,-1.179,-1.1748,-1.1766,-1.1744,-1.1742,-1.174,-1.1738,-1.1737,-1.1758,-1.1757,-1.1721,-1.1721,-1.1722,-1.1722,0,0,0,0,0,0,0,-1.1824,-1.1824,-1.1823,-1.1805,-1.1801,-1.1787,-1.1783,-1.1796,-1.1764,-1.1765,-1.176,-1.1758,-1.1737,-1.1737,-1.1736,-1.1756,-1.1721,-1.1721,-1.1722,-1.1722,-1.181,-1.1812,0,0,0,0,0,0,-1.183,-1.1825,-1.1823,-1.1822,-1.1807,-1.1788,-1.1784,-1.1787,-1.1763,-1.1758,-1.176,-1.1755,-1.1737,-1.1736,-1.1735,-1.1781,-1.1722,-1.1722,-1.1723,-1.1808,-1.181,-1.1813,0,0,0,0,0,0,-1.183,-1.183,-1.1824,-1.1822,-1.182,-1.179,-1.1793,-1.1787,-1.1787,-1.1759,-1.1753,-1.1765,-1.1735,-1.1734,-1.1754,-1.1779,-1.1722,-1.1723,-1.1806,-1.1809,-1.1812,-1.1874,0,0,0,0,0,0,-1.183,-1.1831,-1.1845,-1.1823,-1.1821,-1.1843,-1.1795,-1.1788,-1.1788,-1.1782,-1.1763,-1.1758,-1.1734,-1.1753,-1.1755,-1.1779,-1.1724,-1.1803,-1.1807,-1.1811,-1.1869,-1.1878,-1.1886,0,0,0,0,0,-1.1831,-1.1864,-1.1846,-1.1846,-1.1838,-1.1845,-1.1843,-1.1815,-1.179,-1.1805,-1.1788,-1.1758,-1.1777,-1.1756,-1.1757,-1.1782,-1.1802,-1.1806,-1.181,-1.1865,-1.1876,-1.1886,0,0,0,0,0,0,-1.189,-1.186,-1.184,-1.1867,-1.1859,-1.1835,-1.1852,-1.1828,-1.1826,-1.1821,-1.1786,-1.1782,-1.1807,-1.1796,-1.1773,-1.1821,-1.1785,-1.1789,-1.1826,-1.1836,-1.1845,-1.1846,-1.1724,0,0,0,0,0,-1.1906,-1.1913,-1.1887,-1.1913,-1.191,-1.1882,-1.1884,-1.1863,-1.1853,-1.1849,-1.1833,-1.1825,-1.1829,-1.1832,-1.1834,-1.1868,-1.1863,-1.1886,-1.1895,-1.1902,-1.1906,-1.1924,-1.1934,-1.1827,-1.1827,-1.1827,0,0,-1.1939,-1.1924,-1.1931,-1.1925,-1.1916,-1.1925,-1.188,-1.1891,-1.1897,-1.1851,-1.1868,-1.1857,-1.1845,-1.1872,-1.1883,-1.1865,-1.1935,-1.1907,-1.1913,-1.1913,-1.1929,-1.1939,-1.1948,-1.183,-1.1829,-1.1829,0,0,-1.2005,-1.1994,-1.2015,-1.2007,-1.1994,-1.1975,-1.1981,-1.1961,-1.1951,-1.1968,-1.1934,-1.1942,-1.1949,-1.1942,-1.194,-1.2005,-1.1978,-1.2007,-1.2051,-1.2069,-1.2077,-1.2084,-1.2108,-1.2116,-1.2011,-1.2012,-1.2012,0,-1.2048,-1.2059,-1.2029,-1.2042,-1.2041,-1.2,-1.2021,-1.2015,-1.2004,-1.2005,-1.1984,-1.1993,-1.1982,-1.2007,-1.2024,-1.2023,-1.2028,-1.2008,-1.2078,-1.2085,-1.2091,-1.2113,-1.2122,-1.2015,-1.2015,-1.2014,-1.2014,0,-1.2113,-1.2122,-1.2141,-1.2131,-1.2132,-1.2149,-1.2122,-1.2127,-1.2106,-1.209,-1.2109,-1.2095,-1.2094,-1.2098,-1.2078,-1.2121,-1.211,-1.2084,-1.2047,-1.2106,-1.2126,-1.2134,-1.202,-1.2019,-1.2018,-1.2017,0,0,-1.2214,-1.2188,-1.2195,-1.219,-1.2174,-1.218,-1.2197,-1.2196,-1.2201,-1.2195,-1.2208,-1.2216,-1.2193,-1.219,-1.2169,-1.2185,-1.2238,-1.2157,-1.2156,-1.2173,-1.2284,-1.2304,-1.2314,-1.222,-1.2222,-1.2223,-1.2285,0,-1.2275,-1.23,-1.2274,-1.2305,-1.2313,-1.2275,-1.2289,-1.2281,-1.2267,-1.2273,-1.2257,-1.2263,-1.2232,-1.223,-1.2244,-1.2228,-1.2259,-1.2223,-1.2232,-1.2233,-1.2236,-1.2324,-1.2344,-1.2403,-1.2293,-1.2294,-1.2295,0,-1.2349,-1.2347,-1.2379,-1.2361,-1.2364,-1.2377,-1.2374,-1.238,-1.2371,-1.2359,-1.2358,-1.2332,-1.2348,-1.2313,-1.2334,-1.231,-1.2312,-1.2305,-1.2307,-1.2306,-1.2267,-1.2325,-1.2422,-1.2431,-1.2307,-1.2306,-1.2305,0,-1.2419,-1.2425,-1.2444,-1.2442,-1.2422,-1.2432,-1.2424,-1.2413,-1.2415,-1.2413,-1.2413,-1.2414,-1.2414,-1.2415,-1.2391,-1.2367,-1.2415,-1.2378,-1.2407,-1.2407,-1.2418,-1.2417,-1.2516,-1.242,-1.242,-1.242,-1.242,0,-1.249,-1.2511,-1.2476,-1.2488,-1.2511,-1.2481,-1.2505,-1.2493,-1.2484,-1.2494,-1.2461,-1.2471,-1.2439,-1.2446,-1.2428,-1.2448,-1.2449,-1.244,-1.2435,-1.2443,-1.2444,-1.2443,-1.2438,-1.2422,-1.2422,-1.2421,-1.2421,0,-1.2572,-1.2549,-1.2568,-1.2548,-1.2544,-1.2561,-1.2544,-1.2555,-1.254,-1.2553,-1.2554,-1.253,-1.2536,-1.2513,-1.2515,-1.2503,-1.2534,-1.2522,-1.2537,-1.2533,-1.2563,-1.256,-1.2664,-1.2676,-1.2573,-1.2574,-1.2575,0,-1.2618,-1.2634,-1.2615,-1.262,-1.2614,-1.2621,-1.2622,-1.2594,-1.2597,-1.2588,-1.26,-1.2604,-1.2606,-1.2619,-1.2601,-1.2604,-1.2591,-1.2628,-1.2591,-1.2599,-1.2592,-1.2591,-1.2593,-1.2635,-1.2636,-1.2637,-1.2638,0,-1.2703,-1.2691,-1.2694,-1.2694,-1.2697,-1.2695,-1.2691,-1.2697,-1.2666,-1.2672,-1.2678,-1.2679,-1.2682,-1.2687,-1.2686,-1.2678,-1.2654,-1.265,-1.2656,-1.2664,-1.2673,-1.2669,-1.2557,-1.2647,-1.2646,-1.2646,-1.2645,-1.2645,-1.2769,-1.2781,-1.277,-1.2775,-1.2769,-1.2767,-1.2776,-1.2762,-1.2766,-1.2767,-1.275,-1.276,-1.2751,-1.2747,-1.2743,-1.275,-1.2734,-1.2744,-1.2746,-1.2749,-1.2754,-1.2672,-1.275,-1.275,-1.275,-1.2749,-1.2749,0,-1.2852,-1.2844,-1.2848,-1.2844,-1.2848,-1.2824,-1.2819,-1.2824,-1.2834,-1.2827,-1.283,-1.2838,-1.2843,-1.2826,-1.2829,-1.2838,-1.2827,-1.284,-1.2839,-1.2838,-1.2769,-1.2762,-1.2849,-1.2849,-1.2849,-1.2849,-1.2849,-1.2849,-1.2896,-1.2915,-1.2903,-1.2919,-1.291,-1.292,-1.2919,-1.2917,-1.2912,-1.2922,-1.2926,-1.2915,-1.2905,-1.2907,-1.2911,-1.2906,-1.2908,-1.2925,-1.2917,-1.2852,-1.2842,-1.2833,-1.2827,-1.2926,-1.2926,-1.2985,-1.2985,-1.2986]},{"header":{"parameterUnit":"m.s-1","parameterCategory":1,"la1":30.2991,"la2":30.254,"lo1":-89.0895,"lo2":-89.0444,"dy":0.0017,"dx":0.0017,"nx":28,"ny":28,"refTime":"2024-08-24T09:00:00:Z","depth":0,"parameterNumber":3,"parameterNumberName":"V-component_of_WINDS"},"data":[0,0,0,0,0,0,0,0,0,0,0,0,0,0,0,0,0,0,0,0,0,0,0,0,0,0,0,0,0,0,0,0,0,0,0,0,0,0,0,0,0,0,0,0,0,0,0,0,0,0,0,0,0,0,0,0,0,0,2.488,2.488,0,2.4918,2.4918,2.4919,2.4962,2.4963,2.4963,2.4964,2.5,2.5,2.5001,0,0,0,0,0,0,0,0,0,0,0,0,0,2.4842,2.4842,2.488,2.488,2.4881,2.4918,2.4918,2.4919,2.4962,2.4963,2.4964,2.4964,2.5,2.5,2.5001,0,0,0,0,0,0,0,0,0,0,0,0,0,2.4867,2.4843,2.488,2.4907,2.491,2.4918,2.4918,2.4919,2.4962,2.4963,2.4964,2.4965,2.5,2.5,2.5001,2.4984,0,0,2.5002,2.5002,0,0,0,0,0,0,0,0,2.4865,2.4868,2.4902,2.4905,2.4908,2.4936,2.4918,2.4941,2.4962,2.4942,2.4964,2.4965,2.4978,2.498,2.4985,2.4986,2.4987,2.5002,2.5003,2.5003,2.5003,0,0,0,0,0,0,0,2.4864,2.4867,2.4895,2.4903,2.4906,2.4916,2.4921,2.4923,2.4954,2.4944,2.4947,2.4951,2.498,2.4984,2.4986,2.4988,2.5002,2.5003,2.5003,2.5003,2.4977,2.4976,0,0,0,0,0,0,2.4858,2.4865,2.4894,2.4896,2.4889,2.4916,2.4921,2.4926,2.4954,2.4959,2.495,2.4953,2.4983,2.4986,2.4988,2.497,2.5003,2.5003,2.5004,2.4978,2.4976,2.4975,0,0,0,0,0,0,2.4857,2.486,2.4892,2.4881,2.4886,2.4916,2.4921,2.4926,2.4931,2.4959,2.4964,2.495,2.4984,2.4987,2.4985,2.4971,2.5004,2.5004,2.4979,2.4977,2.4976,2.4934,0,0,0,0,0,0,2.4856,2.486,2.4854,2.4881,2.4887,2.4889,2.492,2.4926,2.4933,2.4937,2.496,2.4964,2.4985,2.4984,2.4985,2.4973,2.5004,2.498,2.4978,2.4976,2.4936,2.4931,2.4926,0,0,0,0,0,2.4855,2.484,2.4854,2.4857,2.4881,2.4888,2.4891,2.4916,2.4931,2.4926,2.4943,2.4964,2.4973,2.4983,2.4985,2.4973,2.4981,2.4979,2.4976,2.4939,2.4932,2.4926,0,0,0,0,0,0,2.481,2.4844,2.486,2.4854,2.4868,2.4896,2.4889,2.4908,2.4918,2.4921,2.495,2.4955,2.4949,2.4961,2.4972,2.4958,2.498,2.4978,2.495,2.4944,2.4939,2.4936,2.5005,0,0,0,0,0,2.48,2.4804,2.4833,2.4825,2.4832,2.4859,2.4863,2.4882,2.4897,2.4903,2.492,2.4934,2.494,2.4943,2.495,2.4939,2.4944,2.4931,2.4926,2.4922,2.4919,2.4914,2.4908,2.4968,2.4968,2.4968,0,0,2.4778,2.4797,2.4798,2.4817,2.483,2.4833,2.4864,2.4866,2.4868,2.4903,2.4902,2.4915,2.4932,2.4925,2.4923,2.4935,2.4904,2.4919,2.4915,2.4915,2.4911,2.4905,2.49,2.4966,2.4967,2.4967,0,0,2.4739,2.4755,2.475,2.4763,2.4783,2.4801,2.48,2.4825,2.4835,2.4836,2.4862,2.4865,2.4874,2.4885,2.4892,2.4859,2.4877,2.486,2.4833,2.4827,2.4823,2.4819,2.4806,2.4801,2.4858,2.4858,2.4858,0,2.4709,2.4716,2.4744,2.4745,2.4752,2.4785,2.478,2.4791,2.4811,2.4815,2.4828,2.4842,2.4855,2.4851,2.4843,2.4848,2.4847,2.4857,2.4821,2.4817,2.4814,2.4802,2.4797,2.4855,2.4856,2.4856,2.4856,0,2.4678,2.4682,2.4675,2.4696,2.4702,2.4699,2.4727,2.473,2.4748,2.4765,2.4764,2.4782,2.4793,2.4794,2.481,2.4792,2.4798,2.4816,2.4838,2.4806,2.4795,2.4791,2.4852,2.4853,2.4854,2.4854,0,0,2.4611,2.4648,2.4645,2.4655,2.468,2.4683,2.4682,2.4694,2.4695,2.4709,2.4708,2.4716,2.4732,2.474,2.4759,2.4754,2.4725,2.4772,2.4773,2.4762,2.4705,2.4691,2.4685,2.4739,2.4738,2.4737,2.4703,0,2.4576,2.4577,2.4603,2.4596,2.46,2.4632,2.4631,2.4645,2.4661,2.4666,2.4684,2.4688,2.471,2.4715,2.4712,2.4729,2.4714,2.4732,2.4737,2.4736,2.473,2.468,2.4665,2.4632,2.4699,2.4699,2.4698,0,2.4536,2.4548,2.4542,2.4567,2.457,2.4568,2.4581,2.4586,2.4603,2.4615,2.4624,2.4645,2.4645,2.4667,2.4667,2.4679,2.4682,2.4691,2.469,2.469,2.4714,2.4678,2.4622,2.4617,2.4692,2.4693,2.4693,0,2.4487,2.4502,2.45,2.4507,2.4537,2.4535,2.4547,2.4566,2.4571,2.4582,2.4586,2.4597,2.4602,2.461,2.4633,2.4647,2.463,2.4654,2.4638,2.4638,2.4632,2.4632,2.4575,2.4636,2.4636,2.4636,2.4636,0,2.4445,2.4439,2.4478,2.4477,2.4472,2.4502,2.4495,2.451,2.4527,2.4528,2.4556,2.4557,2.4588,2.4592,2.4611,2.4607,2.4609,2.4618,2.4623,2.4615,2.4614,2.4617,2.4619,2.4635,2.4635,2.4635,2.4636,0,2.4389,2.4415,2.4415,2.4443,2.445,2.4445,2.4469,2.4469,2.4487,2.4488,2.449,2.4518,2.4524,2.4549,2.4561,2.4573,2.4563,2.4573,2.4557,2.456,2.4543,2.4544,2.4485,2.4478,2.4544,2.4544,2.4543,0,2.4359,2.4356,2.4385,2.4389,2.44,2.4405,2.4412,2.4441,2.4446,2.4465,2.4462,2.4471,2.4479,2.4487,2.4508,2.4517,2.4527,2.4506,2.4528,2.452,2.4525,2.4525,2.4524,2.45,2.4499,2.4499,2.4498,0,2.4305,2.4318,2.4327,2.434,2.4347,2.4358,2.4371,2.4372,2.4404,2.4408,2.4416,2.4422,2.4435,2.4443,2.4455,2.4467,2.4487,2.4491,2.4488,2.4479,2.447,2.4474,2.4543,2.4492,2.4493,2.4493,2.4493,2.4494,2.4261,2.426,2.428,2.4288,2.4301,2.4313,2.4314,2.4332,2.4339,2.4352,2.4369,2.4374,2.4391,2.441,2.442,2.4424,2.4435,2.4431,2.443,2.4428,2.4423,2.447,2.4426,2.4427,2.4427,2.4427,2.4427,0,2.4207,2.4222,2.4229,2.4247,2.4254,2.4274,2.429,2.4293,2.4298,2.4312,2.432,2.4328,2.4336,2.4358,2.4368,2.4366,2.4376,2.4368,2.4367,2.437,2.4413,2.4414,2.436,2.436,2.436,2.436,2.436,2.436,2.418,2.4178,2.4194,2.4199,2.4214,2.422,2.4227,2.4237,2.4249,2.4257,2.4264,2.4279,2.4296,2.4308,2.4315,2.4322,2.4323,2.4312,2.432,2.436,2.4367,2.4373,2.4374,2.4312,2.4312,2.4277,2.4277,2.4276]}]]